Weather History for Peru, IL

Change the Weather History Date:

Tuesday, June 26, 2012

  Actual Average Record
Temperature  
Mean Temperature 66 °F -  
Max Temperature 81 °F 85 °F 101 °F (1988)
Min Temperature 50 °F 62 °F 50 °F (1967)
Growing Degree Days 16 (Base 50)    
Moisture  
Dew Point 49 °F    
Average Humidity 54    
Maximum Humidity 83    
Minimum Humidity 31    
Precipitation  
Precipitation 0.00 in - - ()
Sea Level Pressure  
Sea Level Pressure 30.02 in    
Wind  
Wind Speed 7 mph (ESE)    
Max Wind Speed 10 mph    
Max Gust Speed -    
Visibility 10 miles    
Events      
Averages and records for this station are not official NWS values.
T = Trace of Precipitation, MM = Missing Value Source: NWS Daily Summary

Daily Weather History Graph

Daily Weather History Graph

Search for Another Location

Airport:

Trip Planner

Search our weather history database for the weather conditions in past years. The results will help you decide how hot, cold, wet, or windy it might be!

Date:

Astronomy

Jun. 26, 2012 Rise Set
Actual Time 5:25 AM CDT 8:34 PM CDT
Civil Twilight 4:51 AM CDT 9:07 PM CDT
Nautical Twilight 4:07 AM CDT 9:51 PM CDT
Astronomical Twilight 3:15 AM CDT 10:42 PM CDT
Moon 12:46 PM CDT (6/26) No Moon Set
Length of Visible Light 16h 16m
Length of Day
15h 09m
Waxing Crescent, 45% of the Moon is Illuminated
Jun 26
Waxing Crescent
Jun 26
First Quarter
Jul 3
Full
Jul 10
Last Quarter
Jul 18
New

Hourly Weather History & Observations

Time (CDT) Temp. Dew Point Humidity Pressure Visibility Wind Dir Wind Speed Gust Speed Precip Events Conditions
12:15 AM 56.5 °F 43.2 °F 61% 30.06 in 10.0 mi NE 9.2 mph - N/A   Clear
12:35 AM 54.7 °F 43.7 °F 66% 30.05 in 10.0 mi NE 8.1 mph - N/A   Clear
12:55 AM 54.7 °F 43.0 °F 65% 30.06 in 10.0 mi NE 5.8 mph - N/A   Clear
1:15 AM 54.3 °F 43.3 °F 66% 30.05 in 10.0 mi NE 8.1 mph - N/A   Clear
1:35 AM 52.7 °F 43.7 °F 71% 30.05 in 10.0 mi NE 9.2 mph - N/A   Clear
1:55 AM 53.2 °F 43.7 °F 70% 30.05 in 10.0 mi ENE 5.8 mph - N/A   Clear
2:15 AM 54.7 °F 44.1 °F 67% 30.05 in 10.0 mi NE 4.6 mph - N/A   Clear
2:35 AM 53.1 °F 43.9 °F 71% 30.05 in 10.0 mi NE 5.8 mph - N/A   Clear
2:55 AM 52.2 °F 43.7 °F 73% 30.04 in 10.0 mi NE 6.9 mph - N/A   Clear
3:15 AM 50.7 °F 43.9 °F 77% 30.04 in 10.0 mi NE 8.1 mph - N/A   Clear
3:35 AM 52.0 °F 44.1 °F 74% 30.04 in 10.0 mi NE 3.5 mph - N/A   Clear
3:55 AM 52.0 °F 44.6 °F 76% 30.04 in 10.0 mi ENE 5.8 mph - N/A   Clear
4:15 AM 50.9 °F 45.1 °F 81% 30.04 in 10.0 mi NE 8.1 mph - N/A   Clear
4:35 AM 50.9 °F 45.3 °F 81% 30.04 in 10.0 mi ENE 5.8 mph - N/A   Clear
4:55 AM 51.8 °F 46.4 °F 82% 30.04 in 10.0 mi ENE 4.6 mph - N/A   Clear
5:15 AM 50.4 °F 45.5 °F 83% 30.04 in 10.0 mi NE 6.9 mph - N/A   Clear
5:35 AM 51.1 °F 45.7 °F 82% 30.05 in 10.0 mi NE 5.8 mph - N/A   Clear
5:55 AM 51.1 °F 46.0 °F 83% 30.06 in 10.0 mi NNE 6.9 mph - N/A   Clear
6:15 AM 52.5 °F 46.9 °F 81% 30.06 in 10.0 mi ENE 5.8 mph - N/A   Clear
6:35 AM 54.0 °F 48.6 °F 82% 30.06 in 10.0 mi ENE 3.5 mph - N/A   Clear
6:55 AM 57.2 °F 51.1 °F 80% 30.06 in 10.0 mi East 5.8 mph - N/A   Clear
7:15 AM 58.6 °F 51.3 °F 76% 30.08 in 10.0 mi East 5.8 mph - N/A   Clear
7:35 AM 60.6 °F 52.3 °F 74% 30.07 in 10.0 mi East 6.9 mph - N/A   Clear
7:55 AM 63.1 °F 53.8 °F 71% 30.06 in 10.0 mi East 9.2 mph - N/A   Clear
8:15 AM 64.9 °F 53.2 °F 66% 30.08 in 10.0 mi East 9.2 mph - N/A   Clear
8:35 AM 65.7 °F 52.7 °F 63% 30.07 in 10.0 mi SE 8.1 mph - N/A   Clear
8:55 AM 67.1 °F 53.2 °F 61% 30.08 in 10.0 mi SSE 5.8 mph - N/A   Clear
9:15 AM 68.5 °F 51.8 °F 55% 30.08 in 10.0 mi South 9.2 mph - N/A   Clear
9:35 AM 70.2 °F 52.0 °F 52% 30.09 in 10.0 mi South 5.8 mph - N/A   Clear
9:55 AM 71.6 °F 50.7 °F 48% 30.09 in 10.0 mi South 6.9 mph - N/A   Clear
10:15 AM 72.5 °F 51.1 °F 47% 30.09 in 10.0 mi SSE 6.9 mph - N/A   Clear
10:35 AM 73.4 °F 50.2 °F 44% 30.09 in 10.0 mi SE 9.2 mph - N/A   Clear
10:55 AM 73.9 °F 50.2 °F 43% 30.08 in 10.0 mi South 6.9 mph - N/A   Clear
11:15 AM 75.2 °F 48.9 °F 39% 30.08 in 10.0 mi SE 5.8 mph - N/A   Clear
11:35 AM 75.4 °F 48.7 °F 39% 30.07 in 10.0 mi SE 8.1 mph - N/A   Clear
11:55 AM 75.4 °F 49.1 °F 39% 30.06 in 10.0 mi SE 5.8 mph - N/A   Clear
12:15 PM 76.3 °F 49.1 °F 38% 30.06 in 10.0 mi South 6.9 mph - N/A   Clear
12:35 PM 76.5 °F 49.8 °F 39% 30.05 in 10.0 mi SE 10.4 mph - N/A   Clear
12:55 PM 77.0 °F 49.6 °F 38% 30.04 in 10.0 mi ESE 5.8 mph - N/A   Clear
1:15 PM 77.9 °F 49.6 °F 37% 30.03 in 10.0 mi South 5.8 mph - N/A   Clear
1:35 PM 78.1 °F 51.1 °F 39% 30.03 in 10.0 mi SE 9.2 mph - N/A   Clear
1:55 PM 78.4 °F 50.0 °F 37% 30.03 in 10.0 mi South 5.8 mph - N/A   Clear
2:15 PM 79.5 °F 48.9 °F 34% 30.02 in 10.0 mi SSE 6.9 mph - N/A   Clear
2:35 PM 80.2 °F 48.7 °F 33% 30.01 in 10.0 mi SSE 6.9 mph - N/A   Clear
2:55 PM 80.2 °F 48.0 °F 32% 30.00 in 10.0 mi SE 5.8 mph - N/A   Clear
3:15 PM 80.4 °F 47.5 °F 31% 29.99 in 10.0 mi South 3.5 mph - N/A   Clear
3:35 PM 81.0 °F 47.8 °F 31% 29.99 in 10.0 mi SE 4.6 mph - N/A   Clear
3:55 PM 80.8 °F 48.9 °F 33% 29.98 in 10.0 mi South 6.9 mph - N/A   Clear
4:15 PM 81.3 °F 50.0 °F 33% 29.98 in 10.0 mi SSE 5.8 mph - N/A   Clear
4:35 PM 81.3 °F 48.6 °F 32% 29.97 in 10.0 mi SSE 5.8 mph - N/A   Clear
4:55 PM 81.0 °F 50.0 °F 34% 29.96 in 10.0 mi SSE 9.2 mph - N/A   Clear
5:15 PM 81.0 °F 48.7 °F 32% 29.96 in 10.0 mi South 5.8 mph - N/A   Clear
5:35 PM 80.8 °F 49.6 °F 34% 29.95 in 10.0 mi South 9.2 mph - N/A   Clear
5:55 PM 80.8 °F 50.2 °F 34% 29.93 in 10.0 mi South 9.2 mph - N/A   Clear
6:15 PM 80.2 °F 50.2 °F 35% 29.94 in 10.0 mi South 6.9 mph - N/A   Clear
6:35 PM 80.2 °F 50.7 °F 36% 29.94 in 10.0 mi South 9.2 mph - N/A   Clear
6:55 PM 80.2 °F 51.1 °F 36% 29.94 in 10.0 mi SSE 5.8 mph - N/A   Clear
7:15 PM 80.2 °F 51.4 °F 37% 29.94 in 10.0 mi SE 4.6 mph - N/A   Clear
7:35 PM 78.3 °F 52.0 °F 40% 29.94 in 10.0 mi SE 4.6 mph - N/A   Clear
7:55 PM 77.9 °F 52.5 °F 41% 29.94 in 10.0 mi SE 4.6 mph - N/A   Clear
8:15 PM 77.0 °F 51.3 °F 40% 29.94 in 10.0 mi SE 5.8 mph - N/A   Clear
8:35 PM 75.7 °F 52.0 °F 43% 29.93 in 10.0 mi SE 6.9 mph - N/A   Clear
8:55 PM 75.2 °F 52.7 °F 45% 29.93 in 10.0 mi SE 6.9 mph - N/A   Clear
9:15 PM 73.6 °F 53.1 °F 49% 29.93 in 10.0 mi ESE 8.1 mph - N/A   Clear
9:35 PM 72.7 °F 53.8 °F 51% 29.95 in 10.0 mi SE 6.9 mph - N/A   Clear
9:55 PM 71.8 °F 53.6 °F 53% 29.96 in 10.0 mi ESE 6.9 mph - N/A   Clear
10:15 PM 71.1 °F 54.0 °F 55% 29.96 in 10.0 mi SE 8.1 mph - N/A   Clear
10:35 PM 70.5 °F 53.8 °F 55% 29.96 in 10.0 mi SE 6.9 mph - N/A   Clear
10:55 PM 69.8 °F 53.6 °F 56% 29.96 in 10.0 mi SE 6.9 mph - N/A   Clear
11:15 PM 68.5 °F 53.6 °F 59% 29.95 in 10.0 mi SE 8.1 mph - N/A   Clear
11:35 PM 68.9 °F 53.2 °F 57% 29.96 in 10.0 mi SE 8.1 mph - N/A   Clear
11:55 PM 66.9 °F 53.6 °F 62% 29.95 in 10.0 mi SE 8.1 mph - N/A   Clear